This demonstration page uses our WeatherBlox Daily Observations layout. Learn more.

Left ArrowRight Arrow

Hourly Observations for March 23, 2021

Temp ( °F °C ) Dew Point ( °F °C ) Humidity (%) Winds ( mph kmh ) Pressure ( in mb ) Visibility ( mi km ) Precip ( " mm )
12:54 am 00:54 Cloudy with Mist and Fog 48 8.9 45 7.2 89 89 E 12 19 29.73 1007 6 10 0.00 0.00
1:27 am 01:27 Cloudy with Light Rain 48 8.9 46 7.8 93 93 E 14 22 29.73 1007 4 6 0.01 0.25
1:35 am 01:35 Cloudy with Light Rain 49 9.4 46 7.8 90 90 E 15 24 29.71 1006 5 8 0.01 0.25
1:43 am 01:43 Cloudy with Light Rain 49 9.4 46 7.8 90 90 E 15 24 29.71 1006 4 6 0.02 0.51
1:54 am 01:54 Cloudy with Light Rain 49 9.4 46 7.8 90 90 E 14 22 29.70 1006 5 8 0.02 0.51
2:54 am 02:54 Cloudy with Mist and Fog 48 8.9 46 7.8 93 93 ENE 13 20 29.67 1005 6 10 0.01 0.25
3:54 am 03:54 Cloudy with Light Rain 49 9.4 46 7.8 90 90 ENE 13 20 29.63 1003 7 11 0.00 0.00
4:54 am 04:54 Cloudy with Light Rain 48 8.9 45 7.2 89 89 ENE 15 24 29.61 1003 7 11 0.01 0.25
5:03 am 05:03 Cloudy with Light Rain 48 8.9 45 7.2 89 89 ENE 13 20 29.63 1003 6 10 0.00 0.00
5:54 am 05:54 Cloudy with Light Rain 48 8.9 45 7.2 89 89 E 9 15 29.60 1002 4 6 0.04 1.02
6:52 am 06:52 Cloudy with Light Rain 48 9 45 7 87 87 ENE 13 20 29.60 1002 4 6 0.12 3.05
6:54 am 06:54 Cloudy with Light Rain 48 8.9 45 7.2 89 89 ENE 12 19 29.58 1002 4 6 0.12 3.05
7:54 am 07:54 Cloudy with Rain 48 8.9 45 7.2 89 89 ENE 13 20 29.57 1001 4 6 0.10 2.54
8:54 am 08:54 Cloudy with Rain 48 8.9 45 7.2 89 89 ENE 13 20 29.55 1001 3 5 0.12 3.05
9:54 am 09:54 Cloudy with Rain 48 8.9 46 7.8 93 93 ENE 10 17 29.54 1000 3 5 0.16 4.06
10:54 am 10:54 Cloudy with Light Rain 49 9.4 46 7.8 90 90 ENE 10 17 29.52 1000 6 10 0.08 2.03
11:54 am 11:54 Cloudy with Light Rain 50 10 47 8.3 89 89 NE 10 17 29.51 999 4 6 0.05 1.27
12:54 pm 12:54 Cloudy with Light Rain 50 10 48 8.9 93 93 ENE 9 15 29.49 999 4 6 0.07 1.78
1:54 pm 13:54 Cloudy 51 10.6 48 8.9 89 89 NE 12 19 29.48 998 10 16 0.00 0.00
2:02 pm 14:02 Cloudy 51 10.6 49 9.4 92 92 NE 10 17 29.48 998 10 16 N/A
2:40 pm 14:40 Cloudy with Light Rain 52 11.1 49 9.4 89 89 NNE 12 19 29.46 998 10 16 0.01 0.25
2:54 pm 14:54 Cloudy 52 11.1 49 9.4 89 89 NNE 9 15 29.45 997 10 16 0.01 0.25
3:23 pm 15:23 Cloudy 53 11.7 50 10 89 89 N 8 13 29.44 997 10 16 N/A
3:46 pm 15:46 Cloudy 55 12.8 51 10.6 87 87 NNW 7 11 29.44 997 10 16 N/A
3:54 pm 15:54 Cloudy 55 12.8 50 10 83 83 N 9 15 29.43 997 10 16 N/A
4:22 pm 16:22 Mostly Cloudy 55 12.8 48 8.9 77 77 NNW 9 15 29.44 997 10 16 N/A
4:44 pm 16:44 Cloudy 56 13.3 50 10 81 81 N 8 13 29.45 997 10 16 N/A
4:54 pm 16:54 Cloudy 55 12.8 47 8.3 74 74 NNE 13 20 29.45 997 10 16 N/A
5:28 pm 17:28 Cloudy 54 12.2 48 8.9 80 80 N 13 20 29.46 998 10 16 N/A
5:54 pm 17:54 Cloudy 54 12.2 48 8.9 80 80 N 14 22 29.46 998 10 16 N/A
6:13 pm 18:13 Cloudy 54 12.2 47 8.3 77 77 N 12 19 29.47 998 10 16 N/A
6:23 pm 18:23 Cloudy 54 12.2 47 8.3 77 77 N 13 20 29.48 998 10 16 N/A
6:54 pm 18:54 Cloudy 53 11.7 47 8.3 80 80 NNW 12 19 29.49 999 10 16 N/A
7:04 pm 19:04 Cloudy 52 11.1 47 8.3 83 83 NNW 12 19 29.50 999 10 16 N/A
7:42 pm 19:42 Cloudy 52 11.1 46 7.8 80 80 NNW 12 19 29.52 1000 10 16 N/A
7:54 pm 19:54 Cloudy 51 10.6 47 8.3 86 86 NNW 9 15 29.51 999 10 16 N/A
8:27 pm 20:27 Cloudy 51 10.6 47 8.3 86 86 NW 8 13 29.53 1000 10 16 N/A
8:35 pm 20:35 Cloudy 51 10.6 47 8.3 86 86 NW 9 15 29.53 1000 10 16 N/A
8:54 pm 20:54 Cloudy 51 10.6 47 8.3 86 86 NNW 9 15 29.53 1000 10 16 N/A
9:08 pm 21:08 Cloudy 51 10.6 46 7.8 83 83 NNW 10 17 29.54 1000 10 16 N/A
9:54 pm 21:54 Cloudy 50 10 45 7.2 83 83 NNW 16 26 29.55 1001 10 16 N/A
10:25 pm 22:25 Cloudy with Light Rain 49 9.4 46 7.8 90 90 NW 13 20 29.57 1001 6 10 0.00 0.00
10:54 pm 22:54 Cloudy with Mist and Fog 48 8.9 45 7.2 89 89 NW 15 24 29.57 1001 6 10 0.00 0.00
11:54 pm 23:54 Cloudy 48 8.9 43 6.1 83 83 NNW 18 30 29.59 1002 10 16 N/A

Powered by AerisWeather